Home   Weather   Weiz   Past weeks

Flag for Austria Past Weather in Weiz, Styria, Austria — Yesterday and Last 2 Weeks

Now
12 °F

Cold.


Feels Like: N/A
Forecast: 6 / 29 °F
Wind: N/A

Location: Graz-Thalerhof-Flughafen

Current Time: Jan 20, 2017 at 6:46:52 am

Latest Report: Jan 20, 2017 at 5:00 am


Visibility: 3 mi

Pressure: 30.71 "Hg

Humidity: 91%

Dew Point: 10 °F

Location of WeizLocation

Past Weather in Weiz — Graph

°F

Weiz Temperature Yesterday

Maximum temperature yesterday: 35 °F (at 2:00 pm)
Minimum temperature yesterday: 16 °F (at 11:00 pm)
Average temperature yesterday: 26 °F

High & Low Weather Summary for the Past Weeks

 TemperatureHumidityPressure
High39 °F (Jan 9, 2:00 pm)98% (Jan 14, 4:00 am)30.72 "Hg (Jan 14, 4:00 am)
Low1 °F (Jan 11, 7:00 am)27% (Jan 7, 2:00 pm)29.50 "Hg (Jan 13, 7:00 am)
Average22 °F77%30.23 "Hg
* Reported Jan 5 5:00 am — Jan 20 5:00 am, Weiz, Weather by CustomWeather, © 2017

Note: Actual official high and low records may vary slightly from our data, if they occured in-between our weather recording intervals... More about our weather records

Advertising

Weiz Weather History for the Previous 24 Hours

Scroll right to see more
 ConditionsComfort  
Time TempWeatherWind HumidityBarometerVisibility
5:00 am
Fri, Jan 20
12 °FCold.N/A91%30.71 "Hg3 mi
4:00 am12 °FCold.N/A90%30.71 "Hg3 mi
3:00 am13 °FCold.N/A91%30.72 "Hg2 mi
2:00 am13 °FCold.N/A92%30.72 "Hg3 mi
1:00 am16 °FCold.N/A91%30.71 "Hg3 mi
12:00 am16 °FCold.N/A92%30.71 "Hg3 mi
11:00 pm
Thu, Jan 19
16 °FClear.N/A88%30.71 "Hg4 mi
10:00 pm19 °FClear.N/A89%30.71 "Hg4 mi
9:00 pm19 °FClear.No wind88%30.70 "Hg4 mi
8:00 pm22 °FClear.N/A84%30.68 "Hg5 mi
7:00 pm23 °FClear.N/A80%30.66 "Hg6 mi
6:00 pm27 °FPassing clouds.N/A73%30.63 "Hg6 mi
5:00 pm26 °FPassing clouds.N/A73%30.63 "Hg7 mi
4:00 pm32 °FSunny.N/A60%30.61 "Hg8 mi
3:00 pm34 °FSunny.N/A51%30.61 "Hg9 mi
2:00 pm35 °FPassing clouds.N/A50%30.61 "Hg9 mi
1:00 pm33 °FPassing clouds.N/A53%30.62 "Hg9 mi
12:00 pm30 °FPassing clouds.N/A59%30.65 "Hg8 mi
11:00 am31 °FPassing clouds.N/A68%30.66 "Hg6 mi
10:00 am28 °FPassing clouds.N/A78%30.66 "Hg5 mi
9:00 am26 °FOvercast.N/A87%30.66 "Hg4 mi
8:00 am25 °FOvercast.N/A88%30.64 "Hg4 mi
7:00 am24 °FOvercast.N/A89%30.64 "Hg5 mi
6:00 am24 °FOvercast.N/A88%30.63 "Hg5 mi
Weather by CustomWeather, © 2017

See weather overviewHow to use our weather pages